Satellite-Ground Cal/Val Site Overpasses Predictions

Prediction of Satellite NPP Overpassing Cal/Val Site: Antarctic Dome C

Ground Cal/Val Site Location: Latitude: -75.10, Longitude: 123.35; Satellite-Ground Site NADIR distance within 100 km.

Table of predicted overpasses for the next 14.0 days since TLE Epoch: 1/14/2023
Interval Starting Time Ending Time Minimum Distance Time Minimum Distance (km)
1 01/14/2023 14:56:21 01/14/2023 14:56:50 01/14/2023 14:56:36 24.10
2 01/15/2023 14:37:40 01/15/2023 14:37:56 01/15/2023 14:37:48 82.91
3 01/16/2023 07:39:13 01/16/2023 07:39:40 01/16/2023 07:39:26 33.01
4 01/17/2023 07:20:29 01/17/2023 07:20:47 01/17/2023 07:20:38 77.11
5 01/19/2023 15:02:45 01/19/2023 15:03:08 01/19/2023 15:02:56 61.17
6 01/20/2023 14:43:54 01/20/2023 14:44:20 01/20/2023 14:44:07 47.98
7 01/21/2023 07:45:36 01/21/2023 07:45:57 01/21/2023 07:45:46 68.20
8 01/22/2023 07:26:44 01/22/2023 07:27:11 01/22/2023 07:26:57 39.79
9 01/24/2023 15:09:14 01/24/2023 15:09:17 01/24/2023 15:09:15 98.87
10 01/25/2023 14:50:12 01/25/2023 14:50:41 01/25/2023 14:50:26 12.80
